Location: New Town
(33.2710°N, 90.7534°W)
Time: 03:42:30
(UTC+00:00)

ISS - Pass Details

Date: 21 April 2021
Orbit: 417 x 422 km, 51.6° (Epoch: 18 May)

Event Time Altitude Azimuth Distance (km) Brightness Sun altitude
Exits shadow 10:37:51 - 191° (S) 2,265 -0.4 -10.3°
Reaches altitude 10° 10:40:10 10° 172° (S) 1,491 -1.1 -9.8°
Maximum altitude 10:42:29 18° 128° (SE) 1,115 -1.2 -9.4°
Drops below altitude 10° 10:44:50 10° 83° (E) 1,499 0.5 -8.9°
Sets 10:47:23 0° 64° (ENE) 2,368 2.4 -8.4°
